Location: Aragnouet
(42.7874°N, 0.2165°E)
Time: 11:50:46
(UTC+00:00)

Cosmos 2082 Rocket - Pass Details

Date: 09 April 2020
Orbit: 832 x 855 km, 71.0° (Epoch: 03 June)

Event Time Altitude Azimuth Distance (km) Brightness Sun altitude
Exits shadow 22:15:14 33° 19° (NNE) 1,389 3.5 -33.8°
Drops below altitude 10° 22:18:14 10° 23° (NNE) 2,467 5.0 -34.1°
Sets 22:20:42 0° 24° (NNE) 3,410 5.8 -34.3°
